Location: ??
(34.9170°N, 135.5016°E)
Time: 12:09:15
(UTC+00:00)

Cosmos 1726 Rocket - Pass Details

Date: 29 October 2020
Orbit: 603 x 629 km, 82.5° (Epoch: 26 November)

Event Time Altitude Azimuth Distance (km) Brightness Sun altitude
Rises 19:26:10 0° 357° (N) 2,920 7.0 -23.2°
Reaches altitude 10° 19:28:27 10° 1° (N) 2,010 6.2 -22.7°
Maximum altitude 19:32:51 60° 82° (E) 721 4.1 -21.8°
Drops below altitude 10° 19:37:14 10° 162° (SSE) 1,997 6.4 -21.0°
Sets 19:39:28 0° 166° (SSE) 2,898 7.2 -20.5°
